User: anonymous   Login
Location: Veytaux
(46.4185°N, 6.9320°E)
Time: 14:46:50
(UTC+00:00)
Language:

Cosmos 1980 - Orbit

View from above orbital plane
View from above orbital plane
View from above satellite
View from above satellite

Ground track
Ground track

The orbit data is extracted from the following two-line orbital elements,

1 19649U 88102A   22221.58864356  .00000114  00000-0  83949-4 0  9995
2 19649  70.9992  80.9767 0006451 320.5480  39.5172 14.14766700740107
Epoch (UTC): 09 August 2022 14:07:38
Eccentricity: 0.0006451
inclination: 70.9992°
perigee height: 838 km
apogee height: 848 km
right ascension of ascending node: 80.9767°
argument of perigee: 320.5480°
revolutions per day: 14.14766700
mean anomaly at epoch: 39.5172°
orbit number at epoch: 74010

The dashed part of the orbit path shows where the satellite is in the earth's shadow,  

DLR